COSMOS 2251 DEB, 35031

Orbit data source: Space-Track

COSMOS 2251 DEB, 35031 is space debris in LEO originally from a launch on Wed, 16 Jun 1993 UTC launched from the Plesetsk Missile And Space Complex (PKMTR). The debris from Iridium 33, an American commercial communications satellite, has been tracked extensively since its accidental collision with the defunct Russian satellite Cosmos 2251 in 2009. This event, occurring at high speed in low Earth orbit (LEO), generated thousands of pieces of space debris, significantly increasing the risk of further collisions. The Iridium 33 debris cloud has impacted space traffic management and orbital debris mitigation strategies, making it a subject of ongoing study in space situational awareness.

Loading next visibility...
Identifier
35031, 1993-036AGU
Orbit
LEO
Country
Flag of CISCIS
Related business
Manufacturer
Unknown
Mission
Spacecraft
Bus & Motor
Unknown
Mass
Unknown
Launch date (UTC)
1993-06-16 (33 years ago)
Launch vehicle
Unknown
Launch site
Plesetsk Missile And Space Complex (PKMTR)
Object type
Payload
Rocket body
Debris
Shape & HBR
Unknown shape, 0.1 m
Radar Cross Section
Small (<0.1 m²)

Expand to show TLE details & history
Last TLE update: 3 days ago

TLE from 3 days ago
0 COSMOS 2251 DEB
1 35031U 93036AGU 26059.81823846  .00000425  00000-0  14764-3 0  9991
2 35031  74.0369 115.4074 0019266 198.1978 161.8489 14.38393141664068
Epoch: 2026-02-28T19:38Z
TLE epoch observation values (Epoch: 2026-02-28T19:38:15.802Z)
Latitude
-0.00006°
Longitude
22.20664°
Altitude
779.506 km
Speed
7.458 km/s
True Right ascension
07h 41m 37s
True Declination
0° 00' 00"
Sunlit
Object was in full shadow at epoch
Visualization orbit readout
Latitude
Unknown
Longitude
Unknown
Altitude
Unknown
Speed
Unknown
Apparent Right ascension
Unknown
Apparent Declination
Unknown
Sunlit
N/A
Visualization observer readout
Local Sidereal Time
22:58:15
Azimuth
Unknown
Elevation
Unknown
Doppler factor
Unknown
Orbital elements
Apogee altitude
775.189 km
Perigee altitude
747.679 km
Semi-major axis
7,139.571 km
Eccentricity
0.00193
Inclination
74.0369°
RAAN
115.4074°
Arg. of periapsis
198.1978°
True anomaly
161.91752°
Mean anomaly
161.8489°
Eccentric anomaly
161.88323°
Mean motion
3.59778 °/min
Orbital period
100.06 mins
BSTAR
0.00014764
Loading maneuver chart data...
Computing Atmospheric mass density...

Documentation

Showing up to 5 results
|